Orbital Elements at Epoch 2459000.5 (2020-May-31.0) TDB
Reference: JPL 19 (heliocentric ecliptic J2000)
Element | Value | Uncertainty (1-sigma) | Units |
e | .1666264467497808 | 6.0995e-08 | |
a | 2.42750161917264 | 1.5671e-08 | au |
q | 2.023015649890563 | 1.442e-07 | au |
i | 2.333210529329131 | 4.7003e-06 | deg |
node | 152.7735447659677 | 0.00012233 | deg |
peri | 237.3369230122088 | 0.00012285 | deg |
M | 182.3955882176302 | 1.4378e-05 | deg |
tp | 2459682.036262294181 (2022-Apr-12.53626229) | 5.9726e-05 | TDB |
period | 1381.458106606903 3.78 | 1.3377e-05 3.662e-08 | d yr |
n | .2605942216258888 | 2.5234e-09 | deg/d |
Q | 2.831987588454716 | 1.8282e-08 | au |
|
| | Orbit Determination Parameters
Additional Information
|